Zurück zum Katalog

STARLINK-37803

AktivKommunikationSSO
NORAD 69319·PAYLOAD·🇺🇸 United States

Gestartet May 30, 2026 von Vandenberg Space Force Base

Loading…

Nächste Überflüge (nächste 24 Stunden)

TLE

AktuellSource: CelesTrak SupGP

Epoche: Sep 14, 2026, 21:13 UTC

1 69319C 26119Z   26257.88451389  .00027212  00000+0  84490-3 0  2573
2 69319  97.2825 282.7817 0000959  94.3113  62.8352 15.33418941    18

Verfolge STARLINK-37803 in Echtzeit mit AllMySat

Download on the App Store